Content
SEND FEEDBACK

Daily
Averages
Monthly
Summary
United States of America

BOSTON, MASSACHUSETTS


Home > North America > United States > Massachusetts
Elevation: 4 feet     Latitude: 42 22N     Longitude: 071 02W

WEATHER
 
SELECT A DAY
Number of Records: 205,467;   Date Range: 1/1/95 - 10/24/14
 
SHARE

PRINT THIS DATA

[ ← Previous Day ]
WEATHER ALMANAC - MARCH 20, 2013
[ Next Day → ]
[ °C ]   °F
Weather ElementAverageHighLow
Temperature32.5 °F37.9 °F (3:54 pm)26.1 °F (3:54 am)
Dewpoint18.5 °F21.9 °F (1:54 am)16 °F (1:54 pm)
Humidity57.9 %81 % (1:54 am)41 % (3:54 pm)
Barometer29.75 in29.82 in (10:54 pm)29.70 in (1:54 am)
Wind Speed14.6 mph23 mph (8:54 am)
Wind Gust32.2 mph (10:54 am)
Weather ElementAverage
Visibility10 mi
Wind DirectionWSW (264.2 °)

Weather ElementTotal
Precipitation---
Heating Degree Days33 (Base 65)
Averaged from 24 records on March 20, 2013
WEATHER CONDITIONS BREAKOUT
WIND DIRECTION BREAKOUT
WEATHER BY HOUR - MARCH 20, 2013
[ °C ]   °F
Local TimeTemperatureDewpointHumidityBarometerVisibilityWind DirectionWind SpeedGust SpeedPrecipitationEventsConditions
1:54 AM27.0 °F21.9 °F81 %29.70 in10.0 miNW (320°)15.0 mphMostly Cloudy
2:54 AM27.0 °F21.0 °F78 %29.72 in10.0 miWNW (300°)11.5 mphPartly Cloudy
3:54 AM26.1 °F21.0 °F81 %29.73 in10.0 miWNW (290°)6.9 mphPartly Cloudy
4:33 AM28.4 °F21.2 °F74 %29.73 in10.0 miWest (270°)8.1 mphOvercast
4:54 AM28.0 °F21.0 °F75 %29.73 in10.0 miWSW (250°)6.9 mphOvercast
5:54 AM28.9 °F19.9 °F69 %29.74 in10.0 miWest (260°)12.7 mph20.7 mphOvercast
6:54 AM28.0 °F19.0 °F69 %29.75 in10.0 miWest (260°)16.1 mph24.2 mphPartly Cloudy
7:54 AM28.9 °F19.0 °F67 %29.75 in10.0 miWest (260°)17.3 mph27.6 mphScattered Clouds
8:54 AM30.0 °F19.0 °F64 %29.74 in10.0 miWest (270°)23.0 mph29.9 mphPartly Cloudy
9:54 AM30.9 °F19.0 °F61 %29.75 in10.0 miWest (280°)16.1 mph28.8 mphPartly Cloudy
10:54 AM32.0 °F18.0 °F56 %29.75 in10.0 miWest (280°)20.7 mph32.2 mphPartly Cloudy
11:54 AM34.0 °F18.0 °F52 %29.75 in10.0 miWest (270°)21.9 mph29.9 mphPartly Cloudy
12:54 PM36.0 °F17.1 °F46 %29.75 in10.0 miWest (260°)23.0 mph32.2 mphScattered Clouds
1:54 PM36.0 °F16.0 °F44 %29.75 in10.0 miWest (270°)20.7 mph32.2 mphScattered Clouds
2:54 PM37.0 °F16.0 °F42 %29.73 in10.0 miWest (260°)21.9 mph32.2 mphPartly Cloudy
3:54 PM37.9 °F16.0 °F41 %29.73 in10.0 miWest (260°)21.9 mph28.8 mphPartly Cloudy
4:54 PM37.9 °F16.0 °F41 %29.74 in10.0 miWest (280°)16.1 mphPartly Cloudy
5:54 PM37.9 °F16.0 °F41 %29.76 in10.0 miWest (280°)15.0 mph25.3 mphPartly Cloudy
6:54 PM37.0 °F17.1 °F44 %29.78 in10.0 miWSW (240°)13.8 mph23.0 mphMostly Cloudy
7:54 PM36.0 °F18.0 °F48 %29.79 in10.0 miWest (260°)9.2 mphClear
8:54 PM35.1 °F18.0 °F50 %29.80 in10.0 miWSW (250°)5.8 mphClear
9:54 PM34.0 °F18.0 °F52 %29.81 in10.0 miSW (220°)10.4 mphClear
10:54 PM32.0 °F19.0 °F59 %29.82 in10.0 miSW (220°)8.1 mphPartly Cloudy
11:54 PM33.1 °F18.0 °F54 %29.81 in10.0 miSW (230°)8.1 mphPartly Cloudy
Hourly data recorded from KBOS, located miles away from Boston, Massachusetts







STORIES FROM OUR PARTNERS